Regional Weather Roundup
Issued by NWS

Home | Current Version | Previous Version | Text Only | Print | Product List | Glossary On
Versions: 1 2 3 4 5 6 7 8 9 10 11 12 13 14 15 16 17 18 19 20 21 22 23 24 25 26 27 28 29 30 31 32 33 34 35 36 37 38 39 40 41 42 43 44 45 46 47 48 49 50
000
ASUS43 KLMK 261510
RWRKY
KENTUCKY REGIONAL WEATHER ROUNDUP
NATIONAL WEATHER SERVICE LOUISVILLE KY
1100 AM EDT THU MAY 26 2016

NOTE "FAIR" INDICATES FEW OR NO CLOUDS BELOW 12,000 FEET
WITH NO SIGNIFICANT WEATHER AND/OR OBSTRUCTIONS TO VISIBILITY.

KYZ001>023-026-027-061>063-070>075-261600-
WESTERN AND SOUTH CENTRAL KENTUCKY

CITY           SKY/WX    TMP DP  RH WIND       PRES   REMARKS
PADUCAH        CLOUDY    77  69  76 SW6       30.05R
HENDERSON      SUNNY     79  68  69 SW14      30.03F
OWENSBORO      PTSUNNY   80  71  74 SW14      30.06S
HOPKINSVILLE   SUNNY     79  71  76 SW15      30.08R
BOWLING GREEN  MOSUNNY   78  67  68 SW13      30.10R
GLASGOW        CLOUDY    74  64  70 SW9       30.13R
$$

KYZ024-025-028>034-038-045-046-053-261600-
NORTH CENTRAL KENTUCKY

CITY           SKY/WX    TMP DP  RH WIND       PRES   REMARKS
LOUISVILLE/SDF MOSUNNY   77  64  64 S9        30.08S
LOUISVILLE/LOU PTSUNNY   75  63  66 S7        30.09S
FORT KNOX      PTSUNNY   74  64  70 S9        30.08S
$$

KYZ035>037-039>044-047>052-055>060-089>105-261600-
NORTHEAST KENTUCKY

CITY           SKY/WX    TMP DP  RH WIND       PRES   REMARKS
LEXINGTON      MOSUNNY   72  64  76 S16G25    30.13S
COVINGTON      PTSUNNY   74  64  71 S9G17     30.08F
FRANKFORT      MOSUNNY   74  63  68 S14G21    30.10F
$$

KYZ054-064>069-076>088-106>120-261600-
SOUTHEAST KENTUCKY

CITY           SKY/WX    TMP DP  RH WIND       PRES   REMARKS
JACKSON        LGT RAIN  66  63  90 VRB3      30.19S
LONDON         PTSUNNY   67  63  87 SE6       30.18F
SOMERSET       CLOUDY    68  61  77 SW6       30.20R
MIDDLESBORO    DRIZZLE   67  67  99 CALM      30.22S
MONTICELLO     RAIN      72  66  81 NE8       30.19R
$$




USA.gov is the U.S. government's official web portal to all federal, state and local government web resources and services.